This is the latest recevied weather packets stored in our database for station/object KK6LZB. If no packets are shown the sender has not sent any weather packets the latest 10 day(s).
| Time | Temp. | Humidity | Pressure | Rain* | Wind** | Luminosity | Snow |
|---|---|---|---|---|---|---|---|
| 1778288515 | 20° C | 81% | 1015.2 hPa | 0 mm | - | 126 W/m² | - |
| 1778288213 | 20° C | 81% | 1015.3 hPa | 0 mm | - | 138 W/m² | - |
| 1778287909 | 20° C | 80% | 1015.5 hPa | 0 mm | - | 150 W/m² | - |
| 1778287605 | 20.56° C | 79% | 1015.4 hPa | 0 mm | - | 162 W/m² | - |
| 1778287302 | 20.56° C | 78% | 1015.3 hPa | 0 mm | - | 174 W/m² | - |
| 1778287001 | 20.56° C | 78% | 1015.6 hPa | 0 mm | - | 186 W/m² | - |
| 1778286698 | 21.11° C | 76% | 1015.5 hPa | 0 mm | - | 199 W/m² | - |
| 1778286395 | 20.56° C | 77% | 1015.3 hPa | 0 mm | - | 211 W/m² | - |
| 1778286092 | 20.56° C | 77% | 1015.5 hPa | 0 mm | - | 223 W/m² | - |
| 1778285790 | 20.56° C | 77% | 1015.4 hPa | 0 mm | - | 237 W/m² | - |
| 1778285485 | 20.56° C | 78% | 1015.3 hPa | 0 mm | - | 250 W/m² | - |
| 1778285184 | 20.56° C | 79% | 1015.6 hPa | 0 mm | - | 263 W/m² | - |
| 1778284880 | 21.67° C | 76% | 1015.6 hPa | 0 mm | - | 277 W/m² | - |
| 1778284577 | 21.67° C | 75% | 1015.7 hPa | 0 mm | - | 291 W/m² | - |
| 1778284274 | 21.67° C | 75% | 1015.7 hPa | 0 mm | - | 305 W/m² | - |
| 1778283971 | 21.67° C | 75% | 1015.7 hPa | 0 mm | - | 317 W/m² | - |
| 1778283667 | 21.67° C | 76% | 1015.6 hPa | 0 mm | - | 332 W/m² | - |
| 1778283367 | 21.67° C | 75% | 1015.5 hPa | 0 mm | - | 343 W/m² | - |
| 1778283064 | 21.67° C | 75% | 1015.6 hPa | 0 mm | - | 358 W/m² | - |
| 1778282761 | 21.11° C | 76% | 1015.7 hPa | 0 mm | - | 371 W/m² | - |
| 1778282458 | 21.11° C | 76% | 1015.8 hPa | 0 mm | - | 387 W/m² | - |
| 1778282156 | 21.11° C | 76% | 1015.7 hPa | 0 mm | - | 400 W/m² | - |
| 1778281852 | 21.67° C | 76% | 1016 hPa | 0 mm | - | 412 W/m² | - |
| 1778281549 | 21.11° C | 76% | 1016 hPa | 0 mm | - | 428 W/m² | - |
| 1778281246 | 21.11° C | 77% | 1016.2 hPa | 0 mm | - | 442 W/m² | - |
* Rain latest hour (hover to see other rain measurements)
** Current wind speed in m/s (hover to see current wind gust speed)